Weather Roundup
Issued by NWS Chicago, IL

Home | Current Version | Previous Version | Text Only | Print | Product List | Glossary Off
Versions: 1 2 3 4 5 6 7 8 9 10 11 12 13 14 15 16 17 18 19 20 21 22 23 24 25 26 27 28 29 30 31 32 33 34 35 36 37 38 39 40 41 42 43 44 45 46 47 48 49 50

000
NZUS59 KLOT 270510
HRRLOT

CHICAGO AREA WEATHER ROUNDUP
NATIONAL WEATHER SERVICE CHICAGO/ROMEOVILLE IL
1100 PM CST MON JAN 26 2015

NOTE: "FAIR" INDICATES FEW OR NO CLOUDS BELOW 12,000 FEET WITH NO
SIGNIFICANT WEATHER AND/OR OBSTRUCTIONS TO VISIBILITY.

* THESE STATIONS ARE NOT UNDER NWS QUALITY CONTROL. THEY ALSO MAY NOT
  REPORT WEATHER SUCH AS PRECIPITATION OR FOG.

ILZ005-006-012>014-019>023-270600-
NORTHEAST ILLINOIS

CITY           SKY/WX    TMP DP  RH WIND       PRES   REMARKS
OHARE          LGT SNOW  26  24  92 SE5       29.90S FOG     WCI  20
MIDWAY         LGT SNOW  28  25  88 SE5       29.92R FOG     WCI  23
AURORA         CLOUDY    28  24  85 E5        29.90R FOG     WCI  23
LANSING*       LGT SNOW  26  25  96 SE5       29.92R WCI  21
JOLIET*        LGT SNOW  27  26  96 SE5       29.91R WCI  22
WAUKEGAN       CLOUDY    26  24  92 CALM      29.90S
DUPAGE AIRPORT LGT SNOW  27  24  89 SE3       29.89S FOG
WHEELING       CLOUDY    26  24  92 SE3       29.92S FOG
KANKAKEE*      MIX PCPN  28  27  94 SE5       29.91S WCI  23
MORRIS*        MIX PCPN  28  28 100 SE3       29.89S
LEWIS AIRPORT* MIX PCPN  27  27  99 SE5       29.90S WCI  22
NORTHERLY IS     N/A     26  24  92 SE2         N/A
$$

WIZ051-052-058>065-066-070>072-270600-
SOUTHEAST WISCONSIN

CITY           SKY/WX    TMP DP  RH WIND       PRES   REMARKS
MILWAUKEE      LGT SNOW  26  22  84 CALM      29.92R
KENOSHA*       CLOUDY    26  23  88 CALM      29.91R
RACINE*        LGT SNOW  26  23  88 CALM      29.93R FOG
BURLINGTON     LGT SNOW  23  23  97 E3        29.90S
WAUKESHA       LGT SNOW  23  23 100 CALM      29.91S
WEST BEND      LGT SNOW  25  21  86 CALM      29.91R
$$

INZ001>003-010>013-019-020-270600-
NORTHWEST INDIANA

CITY           SKY/WX    TMP DP  RH WIND       PRES   REMARKS
GARY*          LGT SNOW  27  22  81 SE3       29.93R
MICHIGAN CITY* NOT AVBL
RENSSELAER*    NOT AVBL
VALPARAISO     FLURRIES  22  17  81 SE7       29.93R WCI  13
$$

LMZ740>746-270600-
SOUTHERN LAKE MICHIGAN

STATION/POSITION TIME  SKY/WX   TEMP WIND        PRES    VSBY
                                AIR  DIR/SP/G
                 (UTC)          (F)  (DEG/KT/KT) (MB)    (MI)
HARRISON CRIB    0500            26  160/  7/  9   N/A
BURNHAM HARBOR   0500            26  130/  3/  7   N/A
CALUMET HARBOR   0500            26  120/  2/  3   N/A
BURNS HARBOR     NOT AVBL
MICHIGAN CITY    0500            23  120/  8/  9   N/A
$$

ABBREVIATIONS USED IN REMARKS
   TC - TEMPERATURE IN CELSIUS
  WCI - WIND CHILL INDEX
   HX - HEAT INDEX
  VSB - VISIBILITY
$$


USA.gov is the U.S. government's official web portal to all federal, state and local government web resources and services.